[[{"header":{"parameterUnit":"m.s-1","parameterCategory":1,"la1":30.2991,"la2":30.254,"lo1":-89.0895,"lo2":-89.0444,"dy":0.0017,"dx":0.0017,"nx":28,"ny":28,"refTime":"2023-08-29T21:00:00:Z","depth":0,"parameterNumber":2,"parameterNumberName":"U-component_of_WINDS"},"data":[0,0,0,0,0,0,0,0,0,0,0,0,0,0,0,0,0,0,0,0,0,0,0,0,0,0,0,0,0,0,0,0,0,0,0,0,0,0,0,0,0,0,0,0,0,0,0,0,0,0,0,0,0,0,0,0,0,0,0.9086,0.9086,0,0.9093,0.9093,0.9093,0.9069,0.9068,0.9068,0.9067,0.9074,0.9075,0.9076,0,0,0,0,0,0,0,0,0,0,0,0,0,0.9053,0.9053,0.9086,0.9086,0.9086,0.9093,0.9093,0.9093,0.9069,0.9068,0.9068,0.9067,0.9074,0.9075,0.9076,0,0,0,0,0,0,0,0,0,0,0,0,0,0.9064,0.9054,0.9086,0.9075,0.9074,0.9093,0.9093,0.9093,0.9069,0.9068,0.9067,0.9066,0.9074,0.9075,0.9076,0.9106,0,0,0.908,0.9081,0,0,0,0,0,0,0,0,0.9064,0.9065,0.9076,0.9076,0.9075,0.9079,0.9084,0.9098,0.907,0.9071,0.9067,0.9066,0.9077,0.9078,0.9082,0.9107,0.9107,0.908,0.9081,0.9082,0.9082,0,0,0,0,0,0,0,0.9063,0.9065,0.9089,0.9077,0.9075,0.907,0.9071,0.9087,0.908,0.9071,0.9069,0.907,0.9076,0.908,0.9082,0.9107,0.908,0.9082,0.9082,0.9083,0.9158,0.916,0,0,0,0,0,0,0.9063,0.9064,0.9088,0.9089,0.9066,0.9072,0.9072,0.9079,0.908,0.9079,0.9071,0.9069,0.9079,0.908,0.9082,0.9117,0.9082,0.9083,0.9084,0.9157,0.9159,0.916,0,0,0,0,0,0,0.9063,0.9066,0.9088,0.9076,0.9079,0.9073,0.9081,0.9079,0.9084,0.908,0.9079,0.9077,0.9078,0.908,0.9101,0.9117,0.9084,0.9085,0.9156,0.9158,0.9159,0.9188,0,0,0,0,0,0,0.9062,0.9066,0.9076,0.9077,0.9079,0.9106,0.9082,0.908,0.9086,0.9083,0.9085,0.9084,0.9077,0.9099,0.9102,0.9118,0.9086,0.9154,0.9157,0.9159,0.9185,0.919,0.9195,0,0,0,0,0,0.9061,0.9084,0.9077,0.908,0.9093,0.9107,0.9109,0.91,0.9087,0.9098,0.9097,0.9084,0.9115,0.9101,0.9104,0.9121,0.9153,0.9156,0.9159,0.9183,0.919,0.9195,0,0,0,0,0,0,0.9084,0.9083,0.9076,0.9099,0.9104,0.9103,0.9116,0.9107,0.9115,0.9112,0.9102,0.9102,0.9125,0.9126,0.911,0.9151,0.9132,0.9136,0.915,0.9155,0.916,0.9159,0.9087,0,0,0,0,0,0.9093,0.9104,0.9103,0.9124,0.9127,0.9122,0.9128,0.9121,0.9125,0.9127,0.9126,0.9131,0.9142,0.9149,0.9159,0.9186,0.9186,0.92,0.9205,0.9208,0.9211,0.9227,0.9233,0.9169,0.9169,0.9169,0,0,0.9109,0.911,0.9118,0.9129,0.9131,0.9144,0.9123,0.9137,0.9147,0.9129,0.9148,0.9149,0.9153,0.9178,0.9188,0.9179,0.9229,0.9212,0.9215,0.9215,0.923,0.9236,0.9241,0.9171,0.9171,0.917,0,0,0.9145,0.9148,0.9166,0.9169,0.9174,0.9171,0.9175,0.9177,0.9176,0.9196,0.9183,0.9195,0.9214,0.9218,0.9222,0.9264,0.9253,0.9268,0.9291,0.9306,0.9311,0.9316,0.933,0.9336,0.9271,0.9271,0.9271,0,0.9165,0.9184,0.9176,0.9192,0.9197,0.9183,0.9201,0.9205,0.9213,0.9217,0.9207,0.9231,0.9233,0.9259,0.9269,0.9274,0.9279,0.9266,0.9311,0.9316,0.932,0.9333,0.9339,0.9272,0.9272,0.9272,0.9272,0,0.9208,0.9221,0.9236,0.9244,0.9251,0.9268,0.9264,0.9273,0.9267,0.9265,0.9286,0.9289,0.9299,0.9305,0.9299,0.9331,0.9325,0.9313,0.9293,0.9328,0.934,0.9346,0.9275,0.9274,0.9274,0.9273,0,0,0.9256,0.9262,0.9268,0.9272,0.9277,0.9287,0.9305,0.9316,0.9324,0.9331,0.9345,0.9363,0.9352,0.9358,0.9352,0.9366,0.9399,0.9353,0.9353,0.9361,0.9434,0.9442,0.9448,0.9393,0.9394,0.9395,0.9434,0,0.9292,0.9321,0.9316,0.9344,0.9357,0.9346,0.9361,0.9366,0.9366,0.9377,0.9377,0.939,0.9376,0.9379,0.9392,0.9392,0.9413,0.939,0.9406,0.9406,0.9403,0.9455,0.9463,0.9499,0.9439,0.944,0.944,0,0.9336,0.9345,0.9375,0.938,0.9385,0.9399,0.941,0.9421,0.9427,0.9427,0.9434,0.9427,0.9445,0.9427,0.9452,0.9436,0.9443,0.9444,0.9445,0.9445,0.9424,0.9455,0.9511,0.9516,0.9448,0.9448,0.9447,0,0.9368,0.9388,0.9409,0.9413,0.9419,0.9429,0.9433,0.9438,0.9446,0.9456,0.9461,0.9472,0.9478,0.9488,0.9485,0.9472,0.9511,0.9492,0.951,0.9511,0.9517,0.9517,0.9574,0.9524,0.9524,0.9524,0.9524,0,0.9407,0.9425,0.9423,0.9436,0.9457,0.9452,0.9473,0.9475,0.9481,0.9494,0.9486,0.9498,0.9494,0.9507,0.9505,0.9526,0.9529,0.9529,0.9528,0.9529,0.9529,0.9532,0.9529,0.9526,0.9525,0.9525,0.9525,0,0.9444,0.9444,0.9466,0.9471,0.9473,0.9488,0.9493,0.9505,0.9506,0.9523,0.9527,0.9527,0.9542,0.9541,0.9557,0.9556,0.9582,0.9579,0.958,0.9578,0.9597,0.9595,0.9657,0.9664,0.9611,0.9612,0.9612,0,0.9468,0.9483,0.949,0.9499,0.9503,0.9517,0.9525,0.9522,0.9531,0.9541,0.9552,0.9567,0.9578,0.9603,0.9604,0.9618,0.9614,0.9635,0.9615,0.9616,0.9613,0.9612,0.9613,0.9638,0.9638,0.9639,0.9639,0,0.9511,0.9511,0.9523,0.9535,0.9545,0.9555,0.9564,0.9572,0.957,0.958,0.9596,0.9605,0.9622,0.9637,0.965,0.9654,0.9646,0.9646,0.9651,0.9651,0.965,0.965,0.9589,0.9644,0.9643,0.9643,0.9643,0.9642,0.9542,0.9555,0.9563,0.9577,0.9583,0.9592,0.9605,0.9607,0.962,0.9635,0.9633,0.965,0.9659,0.9675,0.9681,0.9695,0.9687,0.9694,0.9696,0.9697,0.9699,0.965,0.9698,0.9697,0.9697,0.9697,0.9697,0,0.9584,0.9589,0.9602,0.9615,0.9627,0.9621,0.9631,0.9641,0.9656,0.9665,0.9677,0.9695,0.971,0.9715,0.9729,0.9739,0.9737,0.9743,0.9742,0.9743,0.9705,0.9699,0.9745,0.9745,0.9745,0.9745,0.9745,0.9745,0.9606,0.9628,0.9629,0.9654,0.9659,0.9676,0.9683,0.9691,0.9698,0.972,0.9732,0.9735,0.9743,0.9758,0.9772,0.9773,0.9778,0.9786,0.9786,0.975,0.9745,0.974,0.9735,0.9787,0.9788,0.9821,0.9822,0.9822]},{"header":{"parameterUnit":"m.s-1","parameterCategory":1,"la1":30.2991,"la2":30.254,"lo1":-89.0895,"lo2":-89.0444,"dy":0.0017,"dx":0.0017,"nx":28,"ny":28,"refTime":"2023-08-29T21:00:00:Z","depth":0,"parameterNumber":3,"parameterNumberName":"V-component_of_WINDS"},"data":[0,0,0,0,0,0,0,0,0,0,0,0,0,0,0,0,0,0,0,0,0,0,0,0,0,0,0,0,0,0,0,0,0,0,0,0,0,0,0,0,0,0,0,0,0,0,0,0,0,0,0,0,0,0,0,0,0,0,-4.9542,-4.9544,0,-4.9708,-4.971,-4.9711,-4.9708,-4.9706,-4.9703,-4.9701,-4.9864,-4.9871,-4.9877,0,0,0,0,0,0,0,0,0,0,0,0,0,-4.9218,-4.9224,-4.9542,-4.9544,-4.9546,-4.9707,-4.971,-4.9712,-4.9708,-4.9706,-4.9703,-4.97,-4.9862,-4.987,-4.9878,0,0,0,0,0,0,0,0,0,0,0,0,0,-4.9368,-4.9226,-4.9542,-4.9564,-4.9568,-4.9707,-4.971,-4.9713,-4.9709,-4.9705,-4.9702,-4.9699,-4.986,-4.9869,-4.9879,-5.0005,0,0,-4.9908,-4.9912,0,0,0,0,0,0,0,0,-4.936,-4.938,-4.9559,-4.9563,-4.9567,-4.9684,-4.9655,-4.981,-4.971,-4.9655,-4.9701,-4.9697,-4.9807,-4.982,-4.9859,-5.0013,-5.0019,-4.9909,-4.9915,-4.9919,-4.9922,0,0,0,0,0,0,0,-4.9349,-4.9373,-4.9607,-4.9561,-4.9566,-4.9564,-4.9582,-4.9685,-4.9747,-4.966,-4.966,-4.968,-4.9808,-4.9849,-4.9862,-5.0022,-4.9909,-4.9917,-4.9923,-4.9927,-5.0289,-5.0292,0,0,0,0,0,0,-4.9335,-4.9364,-4.9602,-4.9612,-4.9453,-4.9573,-4.9593,-4.965,-4.9746,-4.9758,-4.9682,-4.9679,-4.9835,-4.9851,-4.9868,-5.0023,-4.9919,-4.9928,-4.9933,-5.0285,-5.029,-5.0294,0,0,0,0,0,0,-4.9328,-4.9356,-4.9595,-4.9489,-4.9519,-4.9582,-4.9646,-4.9655,-4.9696,-4.9764,-4.9774,-4.9713,-4.9833,-4.9855,-4.9972,-5.0029,-4.9932,-4.9941,-5.028,-5.0286,-5.0292,-5.0333,0,0,0,0,0,0,-4.9319,-4.9354,-4.9404,-4.949,-4.9525,-4.9698,-4.965,-4.966,-4.9713,-4.971,-4.9795,-4.9806,-4.9832,-4.9957,-4.9981,-5.004,-4.9948,-5.0276,-5.0283,-5.029,-5.0327,-5.034,-5.0351,0,0,0,0,0,-4.9307,-4.9407,-4.9406,-4.9435,-4.9588,-4.9701,-4.9721,-4.975,-4.9718,-4.9768,-4.9811,-4.9803,-5.0019,-4.9969,-4.9996,-5.0059,-5.0272,-5.0281,-5.0289,-5.0322,-5.0337,-5.0351,0,0,0,0,0,0,-4.9323,-4.9419,-4.9419,-4.9549,-4.9618,-4.97,-4.9764,-4.9765,-4.9842,-4.9836,-4.9867,-4.9886,-5.0003,-5.0043,-4.9986,-5.0187,-5.0141,-5.0156,-5.0157,-5.0172,-5.0184,-5.0171,-4.9956,0,0,0,0,0,-4.9342,-4.9427,-4.9506,-4.9613,-4.9648,-4.97,-4.975,-4.9767,-4.9838,-4.9866,-4.9918,-4.9986,-5.0069,-5.0123,-5.0202,-5.0333,-5.0352,-5.039,-5.0401,-5.0411,-5.0422,-5.0495,-5.0513,-5.0322,-5.0322,-5.0322,0,0,-4.9381,-4.9444,-4.9496,-4.9618,-4.9673,-4.9759,-4.9724,-4.9817,-4.9881,-4.9879,-4.9994,-5.0035,-5.0112,-5.0237,-5.0294,-5.0273,-5.048,-5.0422,-5.0429,-5.0436,-5.0506,-5.0524,-5.054,-5.0328,-5.0327,-5.0326,0,0,-4.9497,-4.9554,-4.9651,-4.9707,-4.9791,-4.9826,-4.9849,-4.9933,-4.9961,-5.0077,-5.0078,-5.0154,-5.0296,-5.0351,-5.0398,-5.0538,-5.0533,-5.0563,-5.0624,-5.0695,-5.071,-5.0723,-5.0773,-5.0791,-5.0574,-5.0575,-5.0575,0,-4.9535,-4.9667,-4.9699,-4.9794,-4.9847,-4.9853,-4.9951,-5.0003,-5.0108,-5.0145,-5.012,-5.03,-5.0352,-5.0491,-5.0525,-5.0563,-5.059,-5.0553,-5.0705,-5.0719,-5.0732,-5.078,-5.0799,-5.0578,-5.0577,-5.0577,-5.0577,0,-4.971,-4.9802,-4.9869,-4.9974,-5.0035,-5.013,-5.0176,-5.0234,-5.0246,-5.0283,-5.0401,-5.0465,-5.0558,-5.0592,-5.0604,-5.0733,-5.0717,-5.0699,-5.0654,-5.0753,-5.0799,-5.0818,-5.0582,-5.0581,-5.058,-5.0579,0,0,-4.9839,-4.9962,-4.9986,-5.0035,-5.0129,-5.02,-5.0295,-5.0389,-5.0439,-5.0511,-5.0592,-5.0713,-5.0697,-5.0751,-5.0768,-5.0831,-5.0938,-5.0805,-5.0807,-5.0827,-5.1085,-5.1098,-5.1119,-5.0936,-5.094,-5.0943,-5.1078,0,-4.9965,-5.0137,-5.017,-5.0319,-5.0404,-5.0411,-5.0495,-5.0561,-5.0598,-5.0675,-5.0715,-5.0801,-5.0773,-5.0806,-5.0868,-5.0912,-5.099,-5.0903,-5.101,-5.1014,-5.0991,-5.1143,-5.1157,-5.1282,-5.1097,-5.11,-5.1102,0,-5.0135,-5.0215,-5.0373,-5.0458,-5.0495,-5.057,-5.0659,-5.0733,-5.0808,-5.0831,-5.0892,-5.0903,-5.1002,-5.0953,-5.1089,-5.1029,-5.1075,-5.1103,-5.1109,-5.1119,-5.1063,-5.1158,-5.1323,-5.1341,-5.113,-5.1128,-5.1126,0,-5.0214,-5.0361,-5.0475,-5.0516,-5.0618,-5.067,-5.0714,-5.0787,-5.0842,-5.0919,-5.0955,-5.1043,-5.109,-5.1157,-5.1192,-5.1153,-5.1326,-5.1279,-5.1346,-5.1346,-5.1382,-5.1379,-5.1556,-5.1412,-5.1411,-5.1411,-5.1411,0,-5.0351,-5.0447,-5.0512,-5.0582,-5.0691,-5.0727,-5.0833,-5.0876,-5.0941,-5.1019,-5.103,-5.1102,-5.1144,-5.1222,-5.1249,-5.1358,-5.1379,-5.14,-5.1406,-5.1399,-5.1396,-5.1429,-5.1421,-5.1416,-5.1415,-5.1414,-5.1413,0,-5.0457,-5.0504,-5.0629,-5.0716,-5.074,-5.0817,-5.089,-5.0958,-5.0996,-5.1095,-5.112,-5.1179,-5.1272,-5.1314,-5.1427,-5.1446,-5.157,-5.157,-5.1545,-5.1548,-5.1613,-5.1606,-5.1817,-5.1847,-5.1682,-5.1684,-5.1685,0,-5.0541,-5.0616,-5.0712,-5.0767,-5.0814,-5.09,-5.0957,-5.0996,-5.1055,-5.1148,-5.1204,-5.1298,-5.1375,-5.1524,-5.1575,-5.1663,-5.1665,-5.1733,-5.1678,-5.1669,-5.1666,-5.1662,-5.1669,-5.1742,-5.1744,-5.1745,-5.1746,0,-5.0686,-5.0707,-5.079,-5.0882,-5.0951,-5.1024,-5.1096,-5.1139,-5.1189,-5.1255,-5.1351,-5.1412,-5.153,-5.1623,-5.1714,-5.1758,-5.1761,-5.1764,-5.1784,-5.1777,-5.1761,-5.1771,-5.1573,-5.1758,-5.1757,-5.1756,-5.1756,-5.1755,-5.0784,-5.0852,-5.0931,-5.1023,-5.1082,-5.115,-5.1219,-5.1267,-5.1349,-5.145,-5.1467,-5.157,-5.1644,-5.1768,-5.1816,-5.1896,-5.1879,-5.1908,-5.1916,-5.1922,-5.1927,-5.1748,-5.1913,-5.1912,-5.1912,-5.1912,-5.1912,0,-5.093,-5.0982,-5.1067,-5.1169,-5.1242,-5.1241,-5.1321,-5.1382,-5.1473,-5.1543,-5.162,-5.1732,-5.1823,-5.1883,-5.1975,-5.2028,-5.2031,-5.205,-5.2047,-5.2057,-5.1936,-5.191,-5.2046,-5.2046,-5.2046,-5.2046,-5.2046,-5.2046,-5.1015,-5.113,-5.116,-5.1304,-5.1354,-5.1458,-5.1504,-5.1566,-5.1623,-5.1748,-5.1824,-5.1864,-5.193,-5.2027,-5.2111,-5.2126,-5.2159,-5.2179,-5.2194,-5.2079,-5.2065,-5.2052,-5.2027,-5.2186,-5.2186,-5.2308,-5.2309,-5.231]}]]